RYR147 LFBD-LPPR

Flight info

Callsign RYR147
Flight time 1h 16m
Altitude 31000
Route VAVIX DCT BTZ DCT URUNA DCT SSN DCT VRA DCT NEA DCT ZMR L155 ADORO DCT INKIT
Aircraft B738/M-SDE2E3FGHIRWXY/LB1

Departure

Time 2026-05-06 20:27
Airport Bordeaux–Mérignac Airport (LFBD)

Arrival

Time 2026-05-06 21:43
Airport Francisco de Sá Carneiro Airport (LPPR)
Time Latitude Longitude Altitude Speed Heading
2026-05-06 20:05 44.83160 -0.70415 158 ft 0 kts 162°
2026-05-06 20:21 44.83169 -0.70423 157 ft 2 kts 129°
2026-05-06 20:21 44.83179 -0.70438 157 ft 2 kts 142°
2026-05-06 20:21 44.83191 -0.70452 157 ft 2 kts 138°
2026-05-06 20:21 44.83202 -0.70466 156 ft 1 kts 139°
2026-05-06 20:22 44.83210 -0.70473 156 ft 1 kts 185°
2026-05-06 20:22 44.83216 -0.70470 156 ft 0 kts 223°
2026-05-06 20:22 44.83221 -0.70462 157 ft 1 kts 225°
2026-05-06 20:24 44.83218 -0.70466 156 ft 2 kts 224°
2026-05-06 20:24 44.83198 -0.70493 156 ft 11 kts 224°
2026-05-06 20:24 44.83082 -0.70656 156 ft 20 kts 225°
2026-05-06 20:25 44.82976 -0.70785 158 ft 18 kts 203°
2026-05-06 20:25 44.82882 -0.70663 156 ft 12 kts 107°
2026-05-06 20:25 44.82848 -0.70496 156 ft 23 kts 106°
2026-05-06 20:25 44.82803 -0.70287 161 ft 27 kts 106°
2026-05-06 20:26 44.82767 -0.70112 167 ft 20 kts 106°
2026-05-06 20:26 44.82718 -0.69956 170 ft 8 kts 150°
2026-05-06 20:26 44.82621 -0.69969 170 ft 20 kts 197°
2026-05-06 20:26 44.82568 -0.70117 167 ft 12 kts 284°
2026-05-06 20:27 44.82584 -0.70195 165 ft 41 kts 286°
2026-05-06 20:27 44.82761 -0.71038 166 ft 134 kts 286°
2026-05-06 20:27 44.83073 -0.72564 661 ft 175 kts 287°
2026-05-06 20:27 44.83332 -0.74159 1844 ft 172 kts 280°
2026-05-06 20:28 44.83079 -0.75855 2519 ft 191 kts 245°
2026-05-06 20:28 44.82120 -0.77265 3102 ft 212 kts 217°
2026-05-06 20:28 44.80704 -0.78063 3643 ft 235 kts 188°
2026-05-06 20:28 44.79045 -0.77750 4264 ft 253 kts 159°
2026-05-06 20:29 44.77575 -0.76331 4924 ft 265 kts 130°
2026-05-06 20:29 44.76376 -0.74299 5605 ft 280 kts 130°
2026-05-06 20:29 44.74873 -0.72517 6508 ft 287 kts 149°
2026-05-06 20:29 44.73047 -0.71496 7497 ft 290 kts 167°
2026-05-06 20:30 44.71058 -0.71077 8442 ft 292 kts 177°
2026-05-06 20:30 44.67036 -0.71809 10224 ft 297 kts 191°
2026-05-06 20:30 44.64948 -0.72146 10812 ft 312 kts 185°
2026-05-06 20:31 44.62732 -0.72188 11355 ft 328 kts 180°
2026-05-06 20:31 44.60393 -0.72054 11840 ft 345 kts 178°
2026-05-06 20:31 44.57982 -0.72352 12429 ft 352 kts 198°
2026-05-06 20:31 44.55788 -0.73783 13271 ft 352 kts 213°
2026-05-06 20:32 44.53760 -0.75677 14051 ft 355 kts 217°
2026-05-06 20:32 44.51733 -0.77669 14795 ft 360 kts 217°
2026-05-06 20:32 44.49649 -0.79648 15537 ft 365 kts 215°
2026-05-06 20:32 44.47522 -0.81579 16240 ft 370 kts 214°
2026-05-06 20:33 44.45318 -0.83505 16956 ft 374 kts 213°
2026-05-06 20:33 44.43119 -0.85381 17615 ft 379 kts 213°
2026-05-06 20:33 44.40835 -0.87304 18269 ft 383 kts 212°
2026-05-06 20:33 44.38562 -0.89208 18979 ft 386 kts 212°
2026-05-06 20:34 44.36232 -0.91157 19682 ft 389 kts 213°
2026-05-06 20:34 44.33901 -0.93107 20361 ft 392 kts 213°
2026-05-06 20:34 44.31592 -0.95039 21032 ft 395 kts 213°
2026-05-06 20:34 44.29196 -0.97042 21698 ft 398 kts 213°
2026-05-06 20:35 44.26826 -0.99023 22354 ft 400 kts 213°
2026-05-06 20:35 44.24435 -1.01020 22978 ft 403 kts 213°
2026-05-06 20:35 44.22030 -1.03028 23580 ft 406 kts 213°
2026-05-06 20:35 44.19615 -1.05042 24136 ft 409 kts 213°
2026-05-06 20:36 44.17175 -1.07074 24724 ft 412 kts 212°
2026-05-06 20:36 44.14716 -1.09121 25283 ft 415 kts 213°
2026-05-06 20:36 44.12223 -1.11194 25834 ft 417 kts 213°
2026-05-06 20:36 44.09732 -1.13264 26360 ft 420 kts 213°
2026-05-06 20:37 44.07219 -1.15349 26890 ft 423 kts 213°
2026-05-06 20:37 44.04681 -1.17453 27528 ft 422 kts 213°
2026-05-06 20:37 44.02202 -1.19505 28312 ft 417 kts 213°
2026-05-06 20:37 43.99708 -1.21566 28948 ft 416 kts 213°
2026-05-06 20:38 43.97232 -1.23612 29593 ft 413 kts 213°
2026-05-06 20:38 43.94758 -1.25653 30221 ft 411 kts 213°
2026-05-06 20:38 43.92314 -1.27669 30783 ft 410 kts 213°
2026-05-06 20:38 43.89829 -1.29719 30998 ft 413 kts 213°
2026-05-06 20:39 43.87344 -1.31766 31009 ft 411 kts 213°
2026-05-06 20:39 43.82390 -1.35840 31021 ft 408 kts 213°
2026-05-06 20:40 43.77492 -1.39860 31021 ft 409 kts 213°
2026-05-06 20:40 43.72584 -1.43880 31021 ft 408 kts 213°
2026-05-06 20:41 43.67685 -1.47885 31026 ft 408 kts 213°
2026-05-06 20:41 43.62823 -1.51852 31032 ft 407 kts 213°
2026-05-06 20:42 43.57963 -1.55810 31023 ft 406 kts 213°
2026-05-06 20:42 43.53101 -1.59762 31030 ft 406 kts 213°
2026-05-06 20:43 43.48217 -1.63725 31032 ft 407 kts 213°
2026-05-06 20:43 43.43333 -1.67679 31024 ft 406 kts 212°
2026-05-06 20:44 43.38492 -1.71641 31032 ft 405 kts 215°
2026-05-06 20:44 43.34270 -1.76673 31020 ft 400 kts 232°
2026-05-06 20:45 43.31012 -1.82887 31027 ft 399 kts 238°
2026-05-06 20:45 43.27806 -1.89088 31025 ft 400 kts 235°
2026-05-06 20:46 43.24453 -1.95183 31019 ft 400 kts 234°
2026-05-06 20:46 43.21089 -2.01231 31024 ft 400 kts 234°
2026-05-06 20:47 43.17733 -2.07266 31023 ft 398 kts 234°
2026-05-06 20:47 43.14369 -2.13318 31020 ft 398 kts 234°
2026-05-06 20:48 43.11013 -2.19351 31019 ft 399 kts 234°
2026-05-06 20:48 43.07666 -2.25357 31023 ft 400 kts 234°
2026-05-06 20:49 43.04292 -2.31398 31013 ft 399 kts 234°
2026-05-06 20:49 43.00926 -2.37414 31008 ft 399 kts 234°
2026-05-06 20:50 42.97574 -2.43391 31006 ft 398 kts 234°
2026-05-06 20:50 42.94201 -2.49396 31003 ft 399 kts 234°
2026-05-06 20:51 42.90854 -2.55340 31007 ft 397 kts 234°
2026-05-06 20:51 42.87485 -2.61313 31003 ft 397 kts 234°
2026-05-06 20:52 42.84119 -2.67270 31011 ft 397 kts 234°
2026-05-06 20:52 42.80749 -2.73221 31007 ft 397 kts 234°
2026-05-06 20:53 42.77368 -2.79179 31007 ft 397 kts 234°
2026-05-06 20:53 42.74001 -2.85099 31006 ft 396 kts 234°
2026-05-06 20:54 42.70658 -2.91027 31008 ft 396 kts 234°
2026-05-06 20:54 42.67332 -2.97022 31011 ft 396 kts 234°
2026-05-06 20:55 42.64028 -3.02976 31014 ft 396 kts 234°
2026-05-06 20:55 42.60699 -3.08952 31012 ft 395 kts 234°
2026-05-06 20:56 42.57397 -3.14860 31010 ft 396 kts 234°
2026-05-06 20:56 42.54063 -3.20811 31003 ft 395 kts 234°
2026-05-06 20:57 42.50743 -3.26723 31003 ft 395 kts 234°
2026-05-06 20:57 42.47424 -3.32620 31002 ft 395 kts 234°
2026-05-06 20:58 42.44095 -3.38526 31000 ft 395 kts 234°
2026-05-06 20:58 42.41312 -3.43452 30998 ft 395 kts 234°
2026-05-06 20:59 42.37988 -3.49327 30995 ft 395 kts 234°
2026-05-06 20:59 42.34655 -3.55206 30990 ft 395 kts 234°
2026-05-06 21:00 42.31309 -3.61095 30990 ft 394 kts 234°
2026-05-06 21:00 42.27958 -3.66982 30989 ft 395 kts 233°
2026-05-06 21:01 42.24615 -3.72844 30991 ft 395 kts 233°
2026-05-06 21:01 42.21889 -3.77616 30988 ft 394 kts 233°
2026-05-06 21:02 42.18539 -3.83476 30973 ft 395 kts 233°
2026-05-06 21:02 42.15307 -3.89410 30976 ft 395 kts 236°
2026-05-06 21:03 42.12514 -3.95747 30978 ft 393 kts 242°
2026-05-06 21:03 42.09258 -4.01658 30980 ft 395 kts 225°
2026-05-06 21:04 42.05239 -4.06650 30975 ft 394 kts 227°
2026-05-06 21:04 42.02117 -4.12598 30974 ft 393 kts 243°
2026-05-06 21:05 41.99873 -4.19304 30970 ft 394 kts 248°
2026-05-06 21:05 41.97811 -4.26098 30967 ft 394 kts 248°
2026-05-06 21:06 41.95712 -4.32930 30970 ft 395 kts 247°
2026-05-06 21:06 41.93591 -4.39693 30962 ft 394 kts 247°
2026-05-06 21:07 41.91445 -4.46446 30956 ft 395 kts 246°
2026-05-06 21:07 41.89281 -4.53212 30952 ft 395 kts 246°
2026-05-06 21:08 41.87115 -4.59959 30950 ft 395 kts 246°
2026-05-06 21:08 41.84950 -4.66681 30958 ft 395 kts 246°
2026-05-06 21:09 41.82772 -4.73428 30955 ft 396 kts 246°
2026-05-06 21:09 41.80576 -4.80211 30953 ft 395 kts 246°
2026-05-06 21:10 41.78394 -4.86934 30958 ft 396 kts 246°
2026-05-06 21:10 41.76205 -4.93665 30954 ft 395 kts 246°
2026-05-06 21:11 41.74005 -5.00409 30951 ft 395 kts 246°
2026-05-06 21:11 41.71801 -5.07151 30947 ft 395 kts 246°
2026-05-06 21:12 41.69597 -5.13875 30955 ft 396 kts 246°
2026-05-06 21:12 41.67384 -5.20612 30947 ft 396 kts 245°
2026-05-06 21:13 41.65174 -5.27324 30942 ft 395 kts 245°
2026-05-06 21:13 41.62973 -5.33988 30938 ft 394 kts 245°
2026-05-06 21:14 41.60760 -5.40673 30933 ft 395 kts 245°
2026-05-06 21:14 41.58543 -5.47359 30929 ft 395 kts 245°
2026-05-06 21:15 41.56309 -5.54078 30931 ft 394 kts 245°
2026-05-06 21:15 41.54137 -5.60765 30928 ft 394 kts 248°
2026-05-06 21:16 41.52721 -5.67819 30927 ft 396 kts 259°
2026-05-06 21:16 41.52079 -5.75135 30929 ft 397 kts 263°
2026-05-06 21:17 41.51607 -5.82470 30923 ft 397 kts 263°
2026-05-06 21:17 41.51124 -5.89764 30927 ft 398 kts 263°
2026-05-06 21:18 41.50606 -5.97133 30928 ft 398 kts 263°
2026-05-06 21:18 41.50073 -6.04441 30928 ft 397 kts 262°
2026-05-06 21:19 41.49530 -6.11751 30929 ft 398 kts 263°
2026-05-06 21:19 41.48976 -6.19094 30923 ft 398 kts 262°
2026-05-06 21:20 41.48417 -6.26429 30921 ft 397 kts 262°
2026-05-06 21:20 41.47443 -6.33642 30925 ft 396 kts 255°
2026-05-06 21:21 41.46104 -6.40772 30928 ft 397 kts 254°
2026-05-06 21:21 41.44740 -6.47898 30928 ft 397 kts 254°
2026-05-06 21:22 41.43413 -6.54993 30929 ft 396 kts 254°
2026-05-06 21:22 41.42096 -6.62124 30925 ft 396 kts 255°
2026-05-06 21:23 41.40791 -6.69212 30930 ft 396 kts 254°
2026-05-06 21:23 41.39482 -6.76307 30928 ft 396 kts 254°
2026-05-06 21:24 41.38161 -6.83438 30935 ft 397 kts 254°
2026-05-06 21:24 41.36855 -6.90470 30122 ft 393 kts 254°
2026-05-06 21:24 41.36193 -6.94023 28865 ft 402 kts 254°
2026-05-06 21:25 41.35518 -6.97628 27713 ft 407 kts 254°
2026-05-06 21:25 41.34833 -7.01280 26658 ft 408 kts 255°
2026-05-06 21:25 41.34158 -7.04882 25481 ft 412 kts 255°
2026-05-06 21:25 41.33471 -7.08543 24911 ft 407 kts 255°
2026-05-06 21:26 41.32784 -7.12199 24187 ft 404 kts 255°
2026-05-06 21:26 41.32108 -7.15790 23169 ft 403 kts 255°
2026-05-06 21:26 41.31430 -7.19382 22277 ft 398 kts 255°
2026-05-06 21:26 41.30761 -7.22923 21406 ft 393 kts 255°
2026-05-06 21:27 41.30248 -7.25633 20755 ft 389 kts 255°
2026-05-06 21:27 41.29587 -7.29120 19884 ft 385 kts 255°
2026-05-06 21:27 41.28943 -7.32510 19026 ft 381 kts 255°
2026-05-06 21:27 41.28301 -7.35882 18169 ft 377 kts 255°
2026-05-06 21:28 41.27661 -7.39238 17339 ft 372 kts 255°
2026-05-06 21:28 41.27030 -7.42546 16534 ft 368 kts 255°
2026-05-06 21:28 41.26408 -7.45795 15723 ft 364 kts 255°
2026-05-06 21:28 41.25794 -7.49003 14919 ft 359 kts 255°
2026-05-06 21:29 41.25178 -7.52206 14115 ft 355 kts 255°
2026-05-06 21:29 41.24572 -7.55358 13327 ft 352 kts 255°
2026-05-06 21:29 41.23970 -7.58479 12536 ft 348 kts 255°
2026-05-06 21:29 41.23379 -7.61548 11754 ft 345 kts 255°
2026-05-06 21:30 41.22788 -7.64604 10990 ft 341 kts 255°
2026-05-06 21:30 41.22207 -7.67613 10236 ft 337 kts 254°
2026-05-06 21:30 41.21632 -7.70607 9448 ft 334 kts 254°
2026-05-06 21:30 41.21065 -7.73548 8630 ft 333 kts 254°
2026-05-06 21:31 41.20492 -7.76517 7821 ft 331 kts 255°
2026-05-06 21:31 41.19927 -7.79452 7232 ft 329 kts 255°
2026-05-06 21:31 41.19361 -7.82381 6987 ft 327 kts 255°
2026-05-06 21:31 41.18791 -7.85323 6945 ft 329 kts 254°
2026-05-06 21:32 41.18204 -7.88280 6944 ft 330 kts 252°
2026-05-06 21:32 41.16519 -7.93896 6942 ft 328 kts 244°
2026-05-06 21:32 41.15560 -7.96631 6935 ft 329 kts 245°
2026-05-06 21:33 41.14720 -7.99462 6934 ft 329 kts 249°
2026-05-06 21:33 41.13989 -8.02351 6931 ft 329 kts 251°
2026-05-06 21:33 41.13294 -8.05214 6929 ft 329 kts 251°
2026-05-06 21:33 41.12578 -8.08106 6930 ft 329 kts 250°
2026-05-06 21:34 41.11850 -8.10965 6929 ft 329 kts 250°
2026-05-06 21:34 41.11099 -8.13849 6927 ft 329 kts 250°
2026-05-06 21:34 41.10354 -8.16685 6923 ft 329 kts 250°
2026-05-06 21:34 41.09589 -8.19576 6923 ft 329 kts 250°
2026-05-06 21:35 41.08834 -8.22420 6924 ft 329 kts 250°
2026-05-06 21:35 41.08075 -8.25277 6908 ft 326 kts 250°
2026-05-06 21:35 41.07330 -8.28078 6463 ft 324 kts 250°
2026-05-06 21:35 41.06581 -8.30878 5999 ft 322 kts 250°
2026-05-06 21:36 41.05828 -8.33671 5589 ft 321 kts 250°
2026-05-06 21:36 41.05088 -8.36440 5046 ft 320 kts 251°
2026-05-06 21:36 41.04343 -8.39229 4530 ft 318 kts 251°
2026-05-06 21:36 41.03612 -8.41958 4084 ft 314 kts 251°
2026-05-06 21:37 41.02875 -8.44670 3987 ft 312 kts 251°
2026-05-06 21:37 41.02140 -8.47400 3980 ft 314 kts 251°
2026-05-06 21:37 41.01424 -8.50033 3977 ft 298 kts 251°
2026-05-06 21:37 41.00734 -8.52558 3980 ft 280 kts 251°
2026-05-06 21:38 41.00101 -8.54892 3981 ft 263 kts 253°
2026-05-06 21:38 40.99683 -8.57189 3980 ft 246 kts 267°
2026-05-06 21:38 40.99918 -8.59304 3981 ft 226 kts 298°
2026-05-06 21:38 41.00825 -8.60887 3987 ft 211 kts 320°
2026-05-06 21:39 41.02001 -8.62029 3991 ft 209 kts 333°
2026-05-06 21:39 41.03361 -8.62638 3988 ft 207 kts 351°
2026-05-06 21:39 41.04779 -8.62946 3988 ft 207 kts 352°
2026-05-06 21:39 41.06218 -8.63276 3987 ft 206 kts 351°
2026-05-06 21:40 41.07630 -8.63632 3987 ft 206 kts 351°
2026-05-06 21:40 41.09018 -8.63993 3969 ft 204 kts 351°
2026-05-06 21:40 41.10407 -8.64356 3728 ft 203 kts 351°
2026-05-06 21:40 41.11777 -8.64713 3473 ft 201 kts 350°
2026-05-06 21:41 41.13156 -8.65085 3132 ft 200 kts 349°
2026-05-06 21:41 41.14496 -8.65447 2827 ft 197 kts 349°
2026-05-06 21:41 41.15834 -8.65797 2250 ft 195 kts 350°
2026-05-06 21:41 41.17151 -8.66129 1700 ft 192 kts 350°
2026-05-06 21:42 41.18409 -8.66451 1361 ft 178 kts 349°
2026-05-06 21:42 41.19584 -8.66769 1045 ft 167 kts 348°
2026-05-06 21:42 41.20654 -8.67050 839 ft 150 kts 349°
2026-05-06 21:42 41.21630 -8.67299 615 ft 135 kts 349°
2026-05-06 21:43 41.22521 -8.67532 417 ft 123 kts 349°
2026-05-06 21:43 41.23329 -8.67735 223 ft 113 kts 348°
2026-05-06 21:43 41.23896 -8.67887 211 ft 52 kts 348°
2026-05-06 21:43 41.24092 -8.67938 208 ft 10 kts 349°
2026-05-06 21:44 41.24114 -8.67943 207 ft 9 kts 349°
2026-05-06 21:44 41.24265 -8.67982 203 ft 33 kts 348°
2026-05-06 21:44 41.24499 -8.68045 198 ft 35 kts 348°
2026-05-06 21:44 41.24765 -8.68114 191 ft 37 kts 348°
2026-05-06 21:45 41.24993 -8.68170 182 ft 36 kts 355°
2026-05-06 21:45 41.25203 -8.68136 178 ft 19 kts 17°
2026-05-06 21:45 41.25213 -8.68132 178 ft 0 kts 17°
2026-05-06 21:45 41.25235 -8.68123 177 ft 12 kts 17°
2026-05-06 21:46 41.25263 -8.68022 179 ft 15 kts 151°
2026-05-06 21:46 41.25097 -8.67971 186 ft 32 kts 168°
2026-05-06 21:46 41.24939 -8.67931 193 ft 22 kts 167°
2026-05-06 21:46 41.24774 -8.67838 199 ft 23 kts 159°
2026-05-06 21:47 41.24586 -8.67782 205 ft 28 kts 168°
2026-05-06 21:47 41.24409 -8.67736 211 ft 29 kts 169°
2026-05-06 21:47 41.24267 -8.67644 216 ft 13 kts 130°
2026-05-06 21:47 41.24208 -8.67582 220 ft 15 kts 158°
2026-05-06 21:48 41.24060 -8.67539 223 ft 25 kts 169°
2026-05-06 21:48 41.23896 -8.67496 225 ft 24 kts 168°
2026-05-06 21:48 41.23772 -8.67459 228 ft 14 kts 155°
2026-05-06 21:48 41.23688 -8.67355 233 ft 14 kts 152°
2026-05-06 21:49 41.23656 -8.67340 235 ft 0 kts 164°
2026-05-06 21:49 41.23637 -8.67329 235 ft 4 kts 135°
2026-05-06 21:49 41.23635 -8.67279 238 ft 5 kts 81°
2026-05-06 21:49 41.23640 -8.67241 240 ft 3 kts 79°
2026-05-06 21:50 41.23640 -8.67238 240 ft 0 kts 79°